AUTCUBE 2

Satellite information

Favourite Embed

Satellite Type and Status

PAYLOADIN ORBIT

Key statistics

Satellite AUTCUBE 2 at a glance.

Uptime

2443

Days in orbit

Revolutions

≈ 15.1

Per day

Orbit

SSO

Sun Synchronous Orbit

Inclination

98.1

Latest

Satellite identification and parameters

Extended collection of information and parameters for AUTCUBE 2.

Object identification

Identified? True

Debris? False

Object name: AUTCUBE 2

International designator: 2018-084K

Object number (NORAD): 43681

Object ID (CCSDS): 43681

Country: TO BE DETERMINED/UNKNOWN (TBD)

Current information (Y/N): Y

RCS size: SMALL

Orbital parameters

Period: 95.59 minutes

Inclination: 98.0848 deg

SMA: 6925.226 km

Apoapsis: 554.571 km

Periapsis: 539.612 km

RAAN: 9.7575 deg

Eccentricy: 0.00108

Argument of periapsis: 129.4324 deg

Mean anomaly: 230.7859 deg

Mean motion: 15.06439842 rev/day

Mean motion (dot): 0.00003017 rev/day2

B* drag term: 0.00020899 1/REarth

Two-line elements (TLE)

Creation date: July 5, 2025, 5:45 p.m.

Reference frame: TEME

Reference center: EARTH

Epoch: July 5, 2025, 11:29 a.m. UTC

TLE line 0: 0 AUTCUBE 2

TLE line 1: 1 43681U 18084K 25186.47862928 .00003017 00000-0 20899-3 0 9993

TLE line 2: 2 43681 98.0848 9.7575 0010800 129.4324 230.7859 15.06439842364669

Live tracking on map

Real-time ground track for satellite AUTCUBE 2.

In-orbit conjunctions

There are no conjunctions computed for AUTCUBE 2, at the moment. Check back to stay up to date, as we update our databases every day.

Go to all conjunctions

Associated space launch

KhalifaSat is an Earth observation satellite for UAE. KhalifaSat will provide high-resolution imagery of Earth to be used for various purposes, including urban planning, change monitoring, area classification, monitoring environmental change and aiding relief efforts for natural disasters. GOSAT 2 (Greenhouse gases Observing SATellite 2) is a Japanese satellite dedicated to greenhouse gas measurement from space. It's a follow on to the GOSAT mission and includes such improvements as an ability to gather more precise data and monitor carbon monoxide concentrations.

AUTCUBE 2 was lifted into orbit during the mission ‘H-IIA 202 | KhalifaSat & GOSAT-2’, on board a H-IIA space rocket.

The launch took place on Oct. 29, 2018, 4:08 a.m. from Yoshinobu Launch Complex LP-1.

For more information about the launch, click the button.

Launch to space H-IIA 202 | KhalifaSat & GOSAT-2
H-IIA 202 | KhalifaSat & GOSAT-2

Agency: N/A

Status: Launch Successful

Launch date: Oct. 29, 2018, 4:08 a.m. UTC

Rocket: H-IIA

Launch pad: Yoshinobu Launch Complex LP-1

Location: Tanegashima Space Center, Japan

...

Latest news about this satellite

News about space launch
Japan Launches UAE's KhalifaSat and Climate-Monitoring Satellite Into Orbit


Newsletter sign-up

Weekly statistics, charts and insights to help you stay on top of the space industry.